星链-5978 (STARLINK-5978 )

导读 | 豆包AI

STARLINK-5978是美国SpaceX星链星座中的一颗卫星,于2023年5月31日发射升空。作为星链互联网星座的组成部分,它主要为全球提供低延迟、高速率的宽带互联网服务,尤其覆盖偏远地区与网络基础设施薄弱区域。该卫星依托SpaceX可回收火箭技术发射,遵循星链星座近地轨道部署规划,推进星座全球组网进程。

基本信息
目录编号:
56769
目录名称:
STARLINK-5978
国际标识:
2023-078C
轨道中心:
EARTH
卫星名称:
星链-5978
卫星全名:
星链-5978 (STARLINK-5978 )
卫星状态:
已陨落 最后检测时间 2025-09-08
发射日期:
2023-05-31 UTC
国别 :
美国 (US)
星等 :
--
轨道信息
数据来源 国际轨道数据
星历时间: 2025-09-08T14:57:51+0800
轨道信息已过期188天
半长轴: 6523.171km
偏心率: 0.0011913
轨道倾角: 69.974°
近地点辐角 269.455°
升交点赤经 73.921°
平近点角 90.532°
近地点: 137.264km
远地点: 152.808km
周期: 87.387分钟
每日圈数: 16.478385
详细信息
固有亮度:
5
最大亮度:
2.5
卫星平台:
Starlink v1.5
覆盖范围:
全球
运营商:
太空探索技术公司
运营商所在国:
美国
制造商(研发单位):
太空探索技术公司
制造商所在国:
美国
使用方式:
暂无
卫星简介
星链(Starlink)计划是由太空探索技术公司(SpaceX)提出的一个巨型低轨卫星互联网星座项目,计划在2019年至2024年间在太空搭建由约1.2万颗卫星组成的“星链”网络,其中1584颗将部署在地球上空550千米处的近地轨道,并从2020年开始工作。该卫星仍在工作。